Regional Weather Roundup
Issued by NWS Cleveland, OH

Home | Current Version | Previous Version | Graphics & Text | Print | Product List | Glossary On
Versions: 1 2 3 4 5 6 7 8 9 10 11 12 13 14 15 16 17 18 19 20 21 22 23 24 25 26 27 28 29 30 31 32 33 34 35 36 37 38 39 40 41 42 43 44 45 46 47 48 49 50
000
ASUS41 KCLE 270812
RWRCLE
OHIO REGIONAL WEATHER ROUNDUP
NATIONAL WEATHER SERVICE WILMINGTON, OH
400 AM EDT TUE JUN 27 2017

NOTE: "FAIR" INDICATES FEW OR NO CLOUDS BELOW 12,000 FEET WITH NO
SIGNIFICANT WEATHER AND/OR OBSTRUCTIONS TO VISIBILITY.

OHZ001>008-015>018-024>027-034-035-043-044-270900-
   NORTHWEST OHIO

CITY           SKY/WX    TMP DP  RH WIND       PRES   REMARKS
DEFIANCE       FAIR      51  45  79 CALM      30.05S
FINDLAY        FAIR      53  47  79 W7        30.04S
TOLEDO EXPRESS FAIR      50  47  89 SW6       30.03S
TOLEDO EXEC    FAIR      52  47  83 W7        30.04R
LIMA           FAIR      54  49  83 NW7       30.06S
$$

OHZ009>014-019>023-028>033-038-089-270900-
   NORTHEAST OHIO

CITY           SKY/WX    TMP DP  RH WIND       PRES   REMARKS
CLE-HOPKINS    FAIR      54  51  90 SW9       30.02R
CLE-LAKEFRONT  MOCLDY    57  51  80 SW5       29.99R THUNDER
CUY CO. ARPT   NOT AVBL
LORAIN-ELYRIA  FAIR      53  47  79 W9        30.01S
ASHTABULA      CLOUDY    54  52  93 CALM      29.99F
AKRON-CANTON   MOCLDY    56  48  74 W6        30.01S
WOOSTER        FAIR      54  49  83 W9        30.03R
MANSFIELD      FAIR      53  50  89 W5        30.04R
YOUNGSTOWN     MOCLDY    51  48  89 SW6       30.00S
$$

OHZ042-051>053-060>062-070>072-077>081-270900-
  SOUTHWEST OHIO

CITY           SKY/WX    TMP DP  RH WIND       PRES   REMARKS
CINC-COVINGTON FAIR      55  49  80 W7        30.09F
CINC-LUNKEN    FAIR      54  52  93 CALM      30.09F
HAMILTON       FAIR      51  50  96 CALM      30.09F
DAYTON         FAIR      54  50  86 W8        30.08S
WRIGHT-PAT AFB FAIR      53  51  90 W3        30.07F
DAYTON GENERAL FAIR      56  49  77 NW5       30.07F
WILMINGTON     FAIR      54  51  90 W6        30.08S
$$

OHZ036-037-039>041-045>050-054>059-063>069-073>076-082>088-270900-
  CENTRAL AND SOUTHEAST OHIO

CITY           SKY/WX    TMP DP  RH WIND       PRES   REMARKS
COLUMBUS       FAIR      56  51  84 W7        30.06R
OSU AIRPORT    FAIR      52  50  93 W5        30.06R
BOLTON FIELD   FAIR      55  50  85 W5        30.06F
RICKENBACK AFB FAIR      53  52  97 SW5       30.06S
NEWARK         FAIR      51  49  92 CALM      30.05S
MARION         FAIR      54  49  83 W8        30.05S
LANCASTER      FAIR      52  51  97 CALM      30.06S
ZANESVILLE     FAIR      55  52  89 S5        30.05S
NEW PHILLY     MOCLDY    55  51  86 CALM      30.04R
$$



USA.gov is the U.S. government's official web portal to all federal, state and local government web resources and services.